Valentine, NE

9:46 AM CST on December 13, 2019 (GMT -0600)
Miller Field

Weather History for KVTN - October, 2019

Change the Weather History Date:

Saturday, October 26, 2019

  Actual Average Record
Temperature  
Mean Temperature 50 °F 44 °F  
Max Temperature 64 °F 59 °F 87 °F (1927)
Min Temperature 35 °F 30 °F 9 °F (1936)
Degree Days  
Heating Degree Days 16 21  
Month to date heating degree days 503 409  
Since 1 July heating degree days 556 594  
Cooling Degree Days 0 0  
Month to date cooling degree days 0 1  
Year to date cooling degree days 930 818  
Moisture  
Dew Point 30 °F    
Average Humidity 54    
Maximum Humidity 70    
Minimum Humidity 33    
Precipitation  
Precipitation T in 0.03 in 1.44 in (1941)
Month to date precipitation 1.17 1.10  
Year to date precipitation 28.07 18.85  
Snow  
Snow T in 0.10 in 3.80 in (1911)
Month to date snowfall 1.9 1.1  
Since 1 July snowfall 1.9 1.8  
Since 1 September snowfall 1.9 1.8  
Snow Depth 0.00 in    
Sea Level Pressure  
Sea Level Pressure 29.77 in    
Wind  
Wind Speed 12 mph ()    
Max Wind Speed 33 mph    
Max Gust Speed 43 mph    
Visibility 10.0 miles    
Events      
T = Trace of Precipitation, MM = Missing Value Source: Averaged Metar Reports

Daily Weather History Graph

Daily Weather History Graph

Search for Another Location

Airport or City:

Astronomy

Oct. 26, 2019 Rise Set
Actual Time 8:08 AM CDT 6:42 PM CDT
Civil Twilight 7:39 AM CDT 7:12 PM CDT
Nautical Twilight 7:06 AM CDT 7:45 PM CDT
Astronomical Twilight 6:33 AM CDT 8:17 PM CDT
Moon 6:01 AM CDT (10/26) 6:23 PM CDT (10/26)
Length of Visible Light 11h 32m
Length of Day
10h 34m
Waning Crescent, 3% of the Moon is Illuminated
Oct 26
Waning Crescent
Oct 27
New
Nov 4
First Quarter
Nov 12
Full
Nov 19
Last Quarter

Hourly Weather History & Observations

Time (CDT) Temp. Windchill Dew Point Humidity Pressure Visibility Wind Dir Wind Speed Gust Speed Precip Events Conditions
12:52 AM 52.0 °F - 28.9 °F 41% 29.83 in 10.0 mi SSW 18.4 mph 27.6 mph N/A   Clear
1:52 AM 50.0 °F - 28.0 °F 43% 29.81 in 10.0 mi SW 10.4 mph - N/A   Clear
2:52 AM 48.0 °F - 28.9 °F 48% 29.78 in 10.0 mi West 8.1 mph - N/A   Clear
3:52 AM 45.0 °F 41.8 °F 28.0 °F 52% 29.75 in 10.0 mi SW 5.8 mph - N/A   Clear
4:52 AM 41.0 °F 39.0 °F 28.9 °F 62% 29.72 in 10.0 mi SW 3.5 mph - N/A   Clear
5:52 AM 41.0 °F - 28.0 °F 60% 29.69 in 10.0 mi Calm Calm - N/A   Clear
6:52 AM 37.9 °F 34.4 °F 28.0 °F 68% 29.70 in 10.0 mi West 4.6 mph - N/A   Clear
7:52 AM 36.0 °F 30.3 °F 27.0 °F 70% 29.68 in 10.0 mi West 6.9 mph - N/A   Clear
8:52 AM 41.0 °F - 30.0 °F 65% 29.66 in 10.0 mi Calm Calm - N/A   Clear
9:52 AM 50.0 °F - 32.0 °F 50% 29.63 in 10.0 mi SW 9.2 mph - N/A   Clear
10:52 AM 62.1 °F - 33.1 °F 34% 29.60 in 10.0 mi West 15.0 mph - N/A   Clear
11:52 AM 63.0 °F - 33.1 °F 33% 29.60 in 10.0 mi NW 16.1 mph 26.5 mph N/A   Clear
12:52 PM 60.1 °F - 36.0 °F 41% 29.64 in 10.0 mi NNW 27.6 mph 35.7 mph N/A   Clear
1:52 PM 57.9 °F - 37.0 °F 46% 29.67 in 10.0 mi NNW 21.9 mph 40.3 mph N/A   Clear
2:52 PM 57.0 °F - 36.0 °F 45% 29.71 in 10.0 mi NNW 24.2 mph 39.1 mph N/A   Clear
3:52 PM 53.1 °F - 32.0 °F 45% 29.76 in 10.0 mi NNW 28.8 mph 40.3 mph N/A   Partly Cloudy
4:52 PM 52.0 °F - 30.9 °F 45% 29.80 in 10.0 mi North 25.3 mph 35.7 mph N/A   Overcast
6:52 PM 44.1 °F 36.5 °F 28.9 °F 55% 29.87 in 10.0 mi NNW 17.3 mph 29.9 mph N/A   Mostly Cloudy
7:52 PM 42.1 °F 31.9 °F 28.0 °F 58% 29.89 in 10.0 mi North 26.5 mph 35.7 mph N/A   Mostly Cloudy
8:39 PM 41.0 °F 33.1 °F 28.9 °F 62% 29.87 in 10.0 mi NNW 15.0 mph - N/A   Mostly Cloudy
8:52 PM 39.9 °F 29.0 °F 28.9 °F 65% 29.90 in 10.0 mi NNW 26.5 mph 36.8 mph N/A   Overcast
9:52 PM 37.9 °F 27.9 °F 28.0 °F 68% 29.95 in 10.0 mi NNW 19.6 mph 36.8 mph N/A   Overcast
10:52 PM 37.0 °F 28.5 °F 28.0 °F 70% 29.93 in 10.0 mi North 13.8 mph 29.9 mph N/A   Overcast
11:52 PM 37.0 °F 26.7 °F 27.0 °F 67% 29.96 in 10.0 mi North 19.6 mph 32.2 mph N/A   Overcast